Regional Weather Roundup
Issued by NWS Kansas City/Pleasant Hill, MO

Home | Current Version | Previous Version | Graphics & Text | Print | Product List | Glossary Off
Versions: 1 2 3 4 5 6 7 8 9 10 11 12 13 14 15 16 17 18 19 20 21 22 23 24 25 26 27 28 29 30 31 32 33 34 35 36 37 38 39 40 41 42 43 44 45 46 47 48 49 50

000
ASUS43 KEAX 280410
RWREAX

WEATHER ROUNDUP FOR EASTERN KANSAS AND NORTHWEST MISSOURI
NATIONAL WEATHER SERVICE KANSAS CITY/PLEASANT HILL MO
1100 PM CDT TUE JUN 27 2017

KSZ040-057-103>105-MOZ028-029-037-043-280500-
...KANSAS CITY METROPOLITAN AREA...

CITY           SKY/WX    TMP DP  RH WIND       PRES   REMARKS
K.C. INTL      MOCLDY    75  67  76 S12       29.90R
K.C. DOWNTOWN  CLEAR     77  67  71 S12G20    29.90R
LEES SUMMIT    CLEAR     75  65  70 S10       29.93R
OLATHE - IXD   CLEAR     74  65  73 S12       29.91R
OLATHE - OJC   CLEAR     72  67  84 S13       29.92R
LAWRENCE       CLOUDY    74  68  81 SE10      29.88R

$$

MOZ001>008-011>017-020>025-030>033-038>040-044>046-053-054-280500-
...NORTHERN AND CENTRAL MISSOURI...

CITY           SKY/WX    TMP DP  RH WIND       PRES   REMARKS
ST. JOSEPH     CLEAR     75  67  76 SE14      29.86F
MOSBY          MOCLDY    73  64  73 SE6       29.91S
WARRENSBURG    MOCLDY    72  64  78 SE8       29.93S
WHITEMAN AFB   PTCLDY    73  73  97 S13       29.93S
CLINTON        PTCLDY    73  64  73 S9        29.95R
SEDALIA        MOCLDY    73  67  81 S10       29.97R
WARSAW         NOT AVBL
CHILLICOTHE      N/A     74  64  71 SE6       29.94R
KIRKSVILLE     MOCLDY    69  57  65 S9        29.96S

$$

MOZ041-047>049-056>058-063>065-088>090-097-280500-
...EASTERN AND SOUTHERN MISSOURI...

CITY           SKY/WX    TMP DP  RH WIND       PRES   REMARKS
ST. LOUIS INTL CLEAR     75  52  44 SE13      30.03R
SPIRIT OF STL  CLEAR     71  55  56 VRB3      30.02R
COLUMBIA       PTCLDY    69  63  81 S7        29.99S
JEFFERSON CITY PTCLDY    73  62  68 SE8       29.98S
ROLLA          CLEAR     68  62  81 SE8       30.02R
OSAGE BEACH    CLEAR     70  64  81 SE6       30.01R
SPRINGFIELD    CLEAR     73  64  73 S13       30.00R
BRANSON        CLEAR     68  64  88 CALM      30.05R
JOPLIN         CLEAR     75  65  70 S12       29.96R
WEST PLAINS    CLEAR     68  63  84 SE3       30.07R

$$

IAZ060-094-KSZ022-034>040-054-083-096-NEZ052-066-093-280500-
...KANSAS...SOUTHEAST NEBRASKA AND IOWA...

CITY           SKY/WX    TMP DP  RH WIND       PRES   REMARKS
TOPEKA         CLOUDY    76  66  71 SE13      29.86R
MANHATTAN      CLOUDY    79  65  62 S18G30    29.81R
EMPORIA        CLOUDY    76  63  64 S20G29    29.87R
CHANUTE          N/A     77  63  61 MISG      29.92R
WICHITA        PTCLDY    79  66  64 S17       29.86R
OMAHA          CLOUDY    76  65  68 SE18      29.78S
LINCOLN        PTCLDY    77  65  66 S21G28    29.74F
FALLS CITY     CLEAR     74  66  76 SE15      29.81F
LAMONI         PTCLDY    71  62  73 S12G18    29.90S
DES MOINES     MOCLDY    72  56  57 SE10      29.88F

$$




USA.gov is the U.S. government's official web portal to all federal, state and local government web resources and services.